Flag for Germany Weather past 2 weeks in Dietzenbach, Hesse, Germany

Now
56 °F

Overcast.


Feels Like: 56 °F
Forecast: 45 / 64 °F
Wind: 2 mph from West

Location: Frankfurt / M-Flughafen

Current Time: Aug 23, 2014 at 11:03:10 PM

Latest Report: Aug 23, 2014 at 10:00 PM


Visibility: 28 mi

Pressure: 30.01 "Hg

Humidity: 79%

Dew point: 49 °F

Location of DietzenbachLocation

Historic Weather in Dietzenbach — Graph

°F

Dietzenbach temperature yesterday

Maximum temperature yesterday: 69 °F (at 5:00 PM)
Minimum temperature yesterday: 46 °F (at 4:00 AM)
Average temperature yesterday: 59 °F

Past Weeks' High & Low Weather Summary

 TemperatureHumidityPressure
High77 °F (Aug 10, 3:00 PM)96% (Aug 19, 7:00 AM)30.11 "Hg (Aug 19, 7:00 AM)
Low46 °F (Aug 22, 4:00 AM)32% (Aug 22, 5:00 PM)29.64 "Hg (Aug 13, 5:00 PM)
Average62 °F71%29.91 "Hg
* Reported Aug 8 10:00 PM — Aug 23 10:00 PM, Dietzenbach, Weather by CustomWeather, © 2014

Note: Actual official high and low records may vary slightly from our data, if they occured in-between our weather recording intervals... More about our weather records

Advertising

Dietzenbach weather history for previous 24 hours

 ConditionsComfort  
Time TempWeatherWind HumidityBarometerVisibility
10:00 PM
Aug 23
56 °FOvercast.2 mph79%30.01 "Hg28 mi
9:00 PM56 °FOvercast.3 mph76%29.99 "Hg28 mi
8:00 PM56 °FPartly sunny.5 mph76%29.97 "Hg28 mi
7:00 PM56 °FRain showers. Overcast.7 mph81%29.97 "Hg6 mi
6:00 PM64 °FSprinkles. Overcast.6 mph55%29.93 "Hg22 mi
5:00 PM66 °FOvercast.6 mph51%29.92 "Hg31 mi
4:00 PM64 °FOvercast.6 mph57%29.93 "Hg31 mi
3:00 PM62 °FOvercast.7 mph61%29.94 "Hg28 mi
2:00 PM63 °FOvercast.7 mph59%29.94 "Hg28 mi
1:00 PM64 °FOvercast.7 mph59%29.95 "Hg25 mi
12:00 PM61 °FOvercast.5 mph69%29.96 "Hg25 mi
11:00 AM60 °FPartly sunny.6 mph72%29.96 "Hg25 mi
10:00 AM60 °FOvercast.5 mph73%29.95 "Hg25 mi
9:00 AM57 °FOvercast.3 mph76%29.96 "Hg19 mi
8:00 AM57 °FOvercast.5 mph73%29.95 "Hg25 mi
7:00 AM56 °FOvercast.3 mph76%29.94 "Hg25 mi
6:00 AM56 °FOvercast.2 mph77%29.93 "Hg19 mi
4:00 AM55 °FOvercast.1 mph77%29.94 "Hg25 mi
3:00 AM55 °FOvercast.1 mph75%29.94 "Hg25 mi
2:00 AM57 °FOvercast.2 mph71%29.94 "Hg25 mi
1:00 AM57 °FOvercast.2 mph70%29.94 "Hg25 mi
12:00 AM59 °FPassing clouds.3 mph64%29.93 "Hg28 mi
11:00 PM
Aug 22
62 °FPassing clouds.3 mph56%29.93 "Hg25 mi
Weather by CustomWeather, © 2014

See weather overviewHow to use our weather pages